TimeMST,TemperatureF,Dew PointF,Humidity,Sea Level PressureIn,VisibilityMPH,Wind Direction,Wind SpeedMPH,Gust SpeedMPH,PrecipitationIn,Events,Conditions,WindDirDegrees,DateUTC
12:53 AM,26.1,19.9,78,30.53,10.0,SSE,5.8,-,N/A,,Clear,160,2013-11-07 07:53:00
1:53 AM,26.1,19.9,78,30.53,10.0,SE,5.8,-,N/A,,Clear,130,2013-11-07 08:53:00
2:53 AM,25.0,19.9,81,30.53,10.0,SSE,9.2,-,N/A,,Clear,160,2013-11-07 09:53:00
3:53 AM,24.1,19.9,84,30.53,10.0,SSE,6.9,-,N/A,,Clear,150,2013-11-07 10:53:00
4:53 AM,24.1,19.9,84,30.54,10.0,SE,5.8,-,N/A,,Clear,140,2013-11-07 11:53:00
5:53 AM,24.1,19.0,81,30.57,10.0,South,4.6,-,N/A,,Clear,180,2013-11-07 12:53:00
6:53 AM,21.9,19.0,89,30.59,10.0,SE,5.8,-,N/A,,Clear,140,2013-11-07 13:53:00
7:53 AM,27.0,21.0,78,30.60,10.0,South,5.8,-,N/A,,Clear,170,2013-11-07 14:53:00
8:53 AM,34.0,23.0,64,30.56,10.0,Calm,Calm,-,N/A,,Clear,0,2013-11-07 15:53:00
9:53 AM,39.9,21.9,49,30.52,9.0,WNW,3.5,-,N/A,,Clear,300,2013-11-07 16:53:00
10:53 AM,44.1,21.0,40,30.49,10.0,Variable,3.5,-,N/A,,Clear,0,2013-11-07 17:53:00
11:53 AM,46.9,23.0,39,30.42,10.0,Calm,Calm,-,N/A,,Clear,0,2013-11-07 18:53:00
12:53 PM,50.0,23.0,35,30.35,10.0,Calm,Calm,-,N/A,,Clear,0,2013-11-07 19:53:00
1:53 PM,51.1,23.0,33,30.31,10.0,Variable,4.6,-,N/A,,Clear,0,2013-11-07 20:53:00
2:53 PM,53.1,23.0,31,30.28,10.0,Calm,Calm,-,N/A,,Clear,0,2013-11-07 21:53:00
3:53 PM,54.0,23.0,30,30.27,10.0,North,4.6,-,N/A,,Clear,350,2013-11-07 22:53:00
4:53 PM,51.1,24.1,35,30.27,10.0,North,3.5,-,N/A,,Clear,10,2013-11-07 23:53:00
5:53 PM,45.0,24.1,44,30.29,10.0,North,5.8,-,N/A,,Clear,350,2013-11-08 00:53:00
6:53 PM,41.0,24.1,51,30.32,10.0,Calm,Calm,-,N/A,,Clear,0,2013-11-08 01:53:00
7:53 PM,37.9,26.1,62,30.30,10.0,South,8.1,-,N/A,,Clear,170,2013-11-08 02:53:00
8:53 PM,36.0,27.0,70,30.27,10.0,SSE,6.9,-,N/A,,Clear,160,2013-11-08 03:53:00
9:53 PM,36.0,27.0,70,30.23,10.0,SSE,9.2,-,N/A,,Clear,150,2013-11-08 04:53:00
10:53 PM,33.1,26.1,75,30.21,10.0,SSE,4.6,-,N/A,,Clear,160,2013-11-08 05:53:00
11:53 PM,33.1,26.1,75,30.17,10.0,ESE,5.8,-,N/A,,Clear,120,2013-11-08 06:53:00